Location: Unspecified
(51.0950°N, 12.9690°E)
Time: 08:35:43
(UTC+00:00)

BlueWalker 3 - Visible Passes

Search period start: 30 April 2025 00:00
Search period end: 10 May 2025 00:00
Orbit: 463 x 473 km, 53.2° (Epoch: 29 April)

Date Brightness Start Highest point End Pass type
(mag) Time Alt. Az. Time Alt. Az. Time Alt. Az.
30 Apr 2.2 01:12:46 25° WNW 01:14:44 61° N 01:18:24 10° ENE visible
30 Apr 1.9 02:49:01 10° WNW 02:52:43 82° NNE 02:56:24 10° ESE visible
30 Apr 4.1 23:07:55 17° ENE 23:07:55 17° ENE 23:08:53 10° ENE visible
01 May 2.2 00:41:52 38° WNW 00:43:03 63° N 00:46:43 10° ENE visible
01 May 2.0 02:17:21 10° WNW 02:21:01 76° NNE 02:24:43 10° E visible
01 May 4.5 22:36:58 11° ENE 22:36:58 11° ENE 22:37:10 10° ENE visible
02 May 2.1 00:10:54 58° NW 00:11:21 65° N 00:15:00 10° ENE visible
02 May 2.0 01:45:40 10° WNW 01:49:20 72° NNE 01:53:01 10° E visible
02 May 2.1 23:39:52 65° NNE 23:39:52 65° NNE 23:43:18 10° ENE visible
03 May 2.1 01:13:57 10° WNW 01:17:37 68° N 01:21:17 10° E visible
03 May 2.1 02:51:46 10° WNW 02:55:19 47° SSW 02:58:52 10° SE visible
03 May 2.4 23:08:40 51° NE 23:08:40 51° NE 23:11:35 10° ENE visible
04 May 2.1 00:42:35 12° WNW 00:45:53 65° N 00:49:32 10° E visible
04 May 1.9 02:20:03 10° WNW 02:23:38 53° SSW 02:27:14 10° SE visible
04 May 2.4 22:37:03 48° ENE 22:37:03 48° ENE 22:39:51 10° ENE visible
05 May 2.2 00:10:55 13° WNW 00:14:08 63° N 00:17:47 10° E visible
05 May 1.7 01:48:18 10° WNW 01:51:56 60° SSW 01:55:33 10° SE visible
05 May 2.5 20:23:37 10° SSW 20:26:52 31° SE 20:30:09 10° E visible
05 May 1.8 22:00:45 10° WSW 22:04:24 81° NNW 22:08:05 10° ENE visible
05 May 2.2 23:38:44 10° WNW 23:42:22 61° N 23:46:01 10° E visible
06 May 1.7 01:16:33 10° WNW 01:20:12 68° SSW 01:23:52 10° ESE visible
06 May 2.7 19:52:03 10° SSW 19:55:11 27° SE 19:58:19 10° E visible
06 May 1.7 21:28:59 10° WSW 21:32:39 87° NNW 21:36:20 10° ENE visible
06 May 2.3 23:06:57 10° W 23:10:34 60° N 23:14:13 10° E visible
07 May 1.6 00:44:47 10° WNW 00:48:27 76° SSW 00:52:07 10° ESE visible
07 May 3.1 02:23:02 10° W 02:25:46 20° SW 02:28:31 10° S visible
07 May 2.9 19:20:30 10° SSW 19:23:28 24° SE 19:26:27 10° E visible
07 May 1.6 20:57:13 10° WSW 21:00:52 86° SSE 21:04:33 10° ENE visible
07 May 2.3 22:35:09 10° W 22:38:47 60° N 22:42:25 10° E visible
08 May 1.6 00:13:00 10° WNW 00:16:41 83° SSW 00:20:22 10° ESE visible
08 May 2.9 01:51:07 10° W 01:54:04 23° SW 01:57:01 10° SSE visible
08 May 1.6 20:25:27 10° WSW 20:29:05 78° SSE 20:32:46 10° ENE visible
08 May 2.3 22:03:20 10° W 22:06:58 60° N 22:10:36 10° E visible
08 May 1.7 23:41:13 10° WNW 23:44:54 90° NNE 23:44:58 86° ESE visible
09 May 1.7 19:53:40 10° WSW 19:57:18 70° SSE 20:00:57 10° ENE visible
09 May 2.3 21:31:30 10° W 21:35:08 61° N 21:38:47 10° ENE visible
09 May 1.7 23:09:24 10° WNW 23:13:05 83° NNE 23:13:17 77° ENE visible
